TimeAKDT,TemperatureF,Dew PointF,Humidity,Sea Level PressureIn,VisibilityMPH,Wind Direction,Wind SpeedMPH,Gust SpeedMPH,PrecipitationIn,Events,Conditions,WindDirDegrees,DateUTC
12:53 AM,55.0,51.1,86,30.06,10.0,North,4.6,-,N/A,,Clear,350,2013-07-21 08:53:00
1:53 AM,54.0,50.0,86,30.06,10.0,North,6.9,-,N/A,,Scattered Clouds,350,2013-07-21 09:53:00
2:53 AM,52.0,48.9,89,30.06,10.0,North,4.6,-,N/A,,Clear,350,2013-07-21 10:53:00
3:53 AM,52.0,48.9,89,30.05,10.0,North,6.9,-,N/A,,Clear,350,2013-07-21 11:53:00
4:53 AM,50.0,46.9,89,30.05,10.0,NNE,5.8,-,N/A,,Clear,20,2013-07-21 12:53:00
5:53 AM,46.9,45.0,93,30.04,10.0,Calm,Calm,-,N/A,,Clear,0,2013-07-21 13:53:00
6:53 AM,50.0,46.9,89,30.04,10.0,Calm,Calm,-,N/A,,Clear,0,2013-07-21 14:53:00
7:53 AM,53.1,48.0,83,30.03,10.0,Calm,Calm,-,N/A,,Clear,0,2013-07-21 15:53:00
8:53 AM,54.0,48.9,83,30.01,10.0,SE,3.5,-,N/A,,Clear,130,2013-07-21 16:53:00
9:53 AM,59.0,51.1,75,30.01,10.0,Calm,Calm,-,N/A,,Clear,0,2013-07-21 17:53:00
10:53 AM,62.1,50.0,65,30.00,10.0,ESE,4.6,-,N/A,,Clear,110,2013-07-21 18:53:00
11:53 AM,68.0,52.0,56,29.98,10.0,Variable,5.8,-,N/A,,Clear,0,2013-07-21 19:53:00
12:53 PM,68.0,51.1,55,29.98,10.0,SW,9.2,-,N/A,,Clear,230,2013-07-21 20:53:00
1:53 PM,71.1,50.0,47,29.96,10.0,SW,6.9,-,N/A,,Clear,220,2013-07-21 21:53:00
2:53 PM,75.0,48.0,38,29.95,10.0,Variable,3.5,-,N/A,,Clear,0,2013-07-21 22:53:00
3:53 PM,77.0,45.0,32,29.94,10.0,Variable,5.8,-,N/A,,Scattered Clouds,0,2013-07-21 23:53:00
4:53 PM,75.9,45.0,33,29.93,10.0,NNW,9.2,-,N/A,,Scattered Clouds,340,2013-07-22 00:53:00
5:53 PM,77.0,44.1,31,29.92,10.0,North,10.4,-,N/A,,Scattered Clouds,350,2013-07-22 01:53:00
6:53 PM,75.9,42.1,30,29.91,10.0,NNW,8.1,-,N/A,,Clear,340,2013-07-22 02:53:00
7:53 PM,75.9,44.1,32,29.91,10.0,NNE,12.7,-,N/A,,Mostly Cloudy,20,2013-07-22 03:53:00
8:53 PM,73.0,48.0,41,29.92,10.0,SSE,3.5,-,N/A,,Mostly Cloudy,150,2013-07-22 04:53:00
9:53 PM,70.0,45.0,41,29.94,10.0,NNE,11.5,-,N/A,,Partly Cloudy,20,2013-07-22 05:53:00
10:53 PM,66.9,44.1,44,29.95,10.0,NNE,15.0,21.9,N/A,,Partly Cloudy,30,2013-07-22 06:53:00
11:53 PM,66.0,45.0,47,29.97,10.0,NNE,15.0,-,N/A,,Clear,20,2013-07-22 07:53:00